Location: Newark
(45.0333°N, 18.2865°E)
Time: 19:41:53
(UTC+00:00)

N. Korean satellite - Pass Details

Date: 24 September 2021
Orbit: 450 x 495 km, 97.3° (Epoch: 23 October)

Event Time Altitude Azimuth Distance (km) Brightness Sun altitude
Rises 03:59:18 0° 14° (NNE) 2,522 10.5 -7.4°
Reaches altitude 10° 04:01:22 10° 17° (NNE) 1,647 9.6 -7.0°
Maximum altitude 04:04:53 69° 101° (E) 517 7.0 -6.4°
Drops below altitude 10° 04:08:27 10° 185° (S) 1,659 9.2 -5.8°
Sets 04:10:31 0° 188° (S) 2,541 10.1 -5.4°
